Change the Weather History Date:

Monday, December 17, 2012

  Actual Average (KWAL) Record (KWAL)
Temperature  
Mean Temperature 58 °F 40 °F  
Max Temperature 60 °F 48 °F 61 °F (2000)
Min Temperature 55 °F 32 °F 16 °F (2010)
Degree Days  
Heating Degree Days 8    
Month to date heating degree days  
Since 1 July heating degree days  
Cooling Degree Days 0    
Month to date cooling degree days  
Year to date cooling degree days  
Growing Degree Days 8 (Base 50)    
Moisture  
Dew Point 55 °F    
Average Humidity 93    
Maximum Humidity 100    
Minimum Humidity 82    
Precipitation  
Precipitation 0.09 in 0.11 in 0.39 in (2003)
Month to date precipitation 1.93  
Year to date precipitation 39.34  
Sea Level Pressure  
Sea Level Pressure 29.78 in    
Wind  
Wind Speed 4 mph (ESE)    
Max Wind Speed 13 mph    
Max Gust Speed 23 mph    
Visibility 6 miles    
Events Fog , Rain    
T = Trace of Precipitation, MM = Missing Value Source: NWS Daily Summary

Daily Weather History Graph

Daily Weather History Graph

Search for Another Location

Airport or City:

Trip Planner

Search our weather history database for the weather conditions in past years. The results will help you decide how hot, cold, wet, or windy it might be!

Date:

Astronomy

Dec. 17, 2012 Rise Set
Actual Time 7:12 AM EST 4:46 PM EST
Civil Twilight 6:43 AM EST 5:15 PM EST
Nautical Twilight 6:10 AM EST 5:48 PM EST
Astronomical Twilight 5:38 AM EST 6:20 PM EST
Moon 10:24 AM EST (12/17) 10:00 PM EST (12/17)
Length of Visible Light 10h 32m
Length of Day
9h 34m
Waxing Crescent, 24% of the Moon is Illuminated
Dec 17
Waxing Crescent
Dec 20
First Quarter
Dec 28
Full
Jan 4
Last Quarter
Jan 11
New

Hourly Weather History & Observations

Time (EST) Temp. Dew Point Humidity Pressure Visibility Wind Dir Wind Speed Gust Speed Precip Events Conditions
12:15 AM 55.4 °F 53.6 °F 94% 29.88 in 4.0 mi ESE 3.5 mph - 0.02 in Rain Light Rain
12:35 AM 55.4 °F 53.6 °F 94% 29.87 in 4.0 mi ESE 5.8 mph - 0.03 in Rain Light Rain
1:15 AM 55.4 °F 53.6 °F 94% 29.87 in 4.0 mi ESE 5.8 mph - 0.02 in Rain Light Rain
1:35 AM 55.4 °F 53.6 °F 94% 29.88 in 5.0 mi ESE 5.8 mph - 0.03 in   Drizzle
1:55 AM 55.4 °F 53.6 °F 94% 29.88 in 7.0 mi ESE 5.8 mph - 0.04 in Rain Rain
2:15 AM 55.4 °F 53.6 °F 94% 29.88 in 7.0 mi ESE 3.5 mph - 0.02 in Rain Rain
2:35 AM 55.4 °F 55.4 °F 100% 29.87 in 7.0 mi ESE 4.6 mph - 0.03 in Rain Light Rain
2:55 AM 57.2 °F 55.4 °F 94% 29.87 in 5.0 mi ESE 6.9 mph - 0.03 in Rain Light Rain
3:15 AM 57.2 °F 55.4 °F 94% 29.86 in 7.0 mi ESE 5.8 mph - 0.01 in Rain Light Rain
3:35 AM 57.2 °F 55.4 °F 94% 29.85 in 7.0 mi ESE 5.8 mph - 0.01 in Rain Rain
3:55 AM 57.2 °F 55.4 °F 94% 29.84 in 7.0 mi East 9.2 mph - 0.02 in   Drizzle
4:15 AM 57.2 °F 55.4 °F 94% 29.82 in 10.0 mi ESE 6.9 mph - N/A   Light Drizzle
4:35 AM 57.2 °F 55.4 °F 94% 29.81 in 10.0 mi ESE 5.8 mph - N/A   Scattered Clouds
4:55 AM 57.2 °F 55.4 °F 94% 29.78 in 10.0 mi Calm Calm - N/A   Clear
5:15 AM 57.2 °F 55.4 °F 94% 29.78 in 7.0 mi ESE 3.5 mph - N/A   Clear
5:37 AM 57.2 °F 55.4 °F 94% 29.80 in 10.0 mi ESE 3.5 mph - N/A   Scattered Clouds
5:55 AM 57.2 °F 55.4 °F 94% 29.81 in 7.0 mi ESE 3.5 mph - N/A   Mostly Cloudy
6:15 AM 57.2 °F 55.4 °F 94% 29.82 in 7.0 mi Calm Calm - N/A   Overcast
6:37 AM 57.2 °F 55.4 °F 94% 29.83 in 10.0 mi ESE 4.6 mph - N/A   Overcast
6:55 AM 57.2 °F 55.4 °F 94% 29.83 in 10.0 mi Calm Calm - N/A   Overcast
7:15 AM 57.2 °F 55.4 °F 94% 29.82 in 5.0 mi Calm Calm - N/A   Overcast
7:35 AM 57.2 °F 55.4 °F 94% 29.81 in 5.0 mi Calm Calm - N/A   Overcast
7:55 AM 57.2 °F 55.4 °F 94% 29.82 in 2.0 mi Calm Calm - N/A   Overcast
8:15 AM 57.2 °F 55.4 °F 94% 29.82 in 1.0 mi ESE 3.5 mph - N/A   Overcast
8:35 AM 57.2 °F 55.4 °F 94% 29.82 in 3.0 mi ESE 6.9 mph - N/A   Overcast
8:38 AM 57.2 °F 55.4 °F 94% 29.82 in 3.0 mi ESE 5.8 mph - N/A   Overcast
8:55 AM 57.2 °F 55.4 °F 94% 29.81 in 2.0 mi Calm Calm - N/A   Overcast
9:15 AM 57.2 °F 55.4 °F 94% 29.82 in 3.0 mi ESE 3.5 mph - N/A   Overcast
9:37 AM 57.2 °F 55.4 °F 94% 29.84 in 3.0 mi Calm Calm - N/A   Overcast
9:55 AM 57.2 °F 55.4 °F 94% 29.85 in 3.0 mi Calm Calm - N/A   Overcast
10:15 AM 57.2 °F 57.2 °F 100% 29.85 in 4.0 mi Calm Calm - N/A   Overcast
10:35 AM 59.0 °F 57.2 °F 94% 29.84 in 5.0 mi Calm Calm - N/A   Overcast
10:55 AM 59.0 °F 57.2 °F 94% 29.84 in 7.0 mi ESE 3.5 mph - N/A   Overcast
11:15 AM 59.0 °F 57.2 °F 94% 29.84 in 10.0 mi ESE 3.5 mph - N/A   Overcast
11:35 AM 59.0 °F 57.2 °F 94% 29.83 in 10.0 mi ESE 3.5 mph - N/A   Overcast
11:55 AM 60.8 °F 55.4 °F 82% 29.81 in 10.0 mi Calm Calm - N/A   Overcast
12:15 PM 60.8 °F 55.4 °F 82% 29.80 in 10.0 mi SE 4.6 mph - N/A   Overcast
12:55 PM 60.8 °F 55.4 °F 82% 29.78 in 7.0 mi Calm Calm - N/A   Overcast
1:17 PM 60.8 °F 55.4 °F 82% 29.78 in 10.0 mi Calm Calm - N/A   Overcast
1:35 PM 60.8 °F 55.4 °F 82% 29.78 in 10.0 mi Calm Calm - N/A   Overcast
1:55 PM 60.8 °F 55.4 °F 82% 29.77 in 10.0 mi Calm Calm - N/A   Overcast
2:15 PM 60.8 °F 55.4 °F 82% 29.76 in 7.0 mi ESE 3.5 mph - N/A   Overcast
2:35 PM 59.0 °F 55.4 °F 88% 29.75 in 7.0 mi SE 5.8 mph - N/A   Mostly Cloudy
2:55 PM 57.2 °F 55.4 °F 94% 29.74 in 3.0 mi SE 3.5 mph - N/A   Mostly Cloudy
3:15 PM 57.2 °F 55.4 °F 94% 29.74 in 0.5 mi SE 3.5 mph - N/A Fog Fog
3:36 PM 55.4 °F 53.6 °F 94% 29.74 in 0.5 mi SE 3.5 mph - N/A Fog Fog
3:55 PM 55.4 °F 53.6 °F 94% 29.76 in 0.5 mi Calm Calm - N/A Fog Fog
4:15 PM 55.4 °F 53.6 °F 94% 29.75 in 0.8 mi Calm Calm - N/A   Overcast
4:35 PM 55.4 °F 53.6 °F 94% 29.77 in 1.0 mi Calm Calm - N/A   Overcast
4:55 PM 55.4 °F 53.6 °F 94% 29.76 in 0.2 mi Calm Calm - N/A Fog Fog
7:35 PM 55.4 °F 53.6 °F 94% 29.69 in 2.0 mi ESE 5.8 mph - N/A   Light Drizzle
7:55 PM 55.4 °F 53.6 °F 94% 29.66 in 4.0 mi East 10.4 mph - N/A   Overcast
8:16 PM 55.4 °F 53.6 °F 94% 29.66 in 5.0 mi East 9.2 mph - N/A   Overcast
8:35 PM 55.4 °F 55.4 °F 100% 29.67 in 10.0 mi ESE 4.6 mph - N/A   Overcast
8:55 PM 57.2 °F 55.4 °F 94% 29.66 in 7.0 mi East 8.1 mph - N/A   Overcast
9:15 PM 57.2 °F 55.4 °F 94% 29.65 in 7.0 mi ENE 12.7 mph 18.4 mph N/A   Overcast
9:35 PM 57.2 °F 55.4 °F 94% 29.63 in 10.0 mi East 11.5 mph 18.4 mph N/A   Mostly Cloudy
9:55 PM 57.2 °F 55.4 °F 94% 29.62 in 10.0 mi East 11.5 mph - N/A   Mostly Cloudy
10:36 PM 59.0 °F 57.2 °F 94% 29.64 in 10.0 mi East 10.4 mph 23.0 mph N/A   Clear
10:55 PM 57.2 °F 55.4 °F 94% 29.62 in 10.0 mi East 10.4 mph - N/A   Scattered Clouds
11:15 PM 57.2 °F 55.4 °F 94% 29.63 in 10.0 mi ESE 6.9 mph - N/A   Mostly Cloudy
11:35 PM 57.2 °F 55.4 °F 94% 29.62 in 10.0 mi ESE 6.9 mph - N/A   Overcast
11:55 PM 57.2 °F 55.4 °F 94% 29.61 in 10.0 mi ESE 6.9 mph - N/A   Overcast